ARABSAT 6A (44186 NORAD) Tracking and Keplerian Element Data

This shows tracking and keplerian element data for the satellite.

Feedback or suggestion? Click here.




ElementValue
Catalog44186
NameARABSAT 6A
Epoch Orbit4
Epoch Day108.93443466
Epoch Year2019
RAAN12.1779
Inclination9.9581
Eccentricity0.7234546
Argument of Perigee180.2015
Mean Anonmoly352.3057
Mean Motion0.65532896
Decay Rate-6.37E-06
L11 44186U 19021A 19108.93443466 -.00000637 00000-0 00000+0 0 9990
L22 44186 9.9581 12.1779 7234546 180.2015 352.3057 0.65532896 45

Live tracking and technical data element details for ARABSAT 6A (NORAD 44186). ARABSAT 6A can be tracked NOW for your location showing map with azimuth and elevation plus other details from your city location.

Track the satellite on the map from your city or location and see movement details for azimuth, elevation, latitude, longitude, range, height, and movement on the map or in text.







IsCatalogInMostPopularTable: catalog: 44186, numindb: -1

Insert: records affected: 1


GetName: 44186 ARABSAT 6A

Hit Count: inserted at: Tue, 23 Apr 2019 01:54:56 GMT